Date,TemperatureHighF,TemperatureAvgF,TemperatureLowF,DewpointHighF,DewpointAvgF,DewpointLowF,HumidityHigh,HumidityAvg,HumidityLow,PressureMaxIn,PressureMinIn,WindSpeedMaxMPH,WindSpeedAvgMPH,GustSpeedMaxMPH,PrecipitationSumIn
2013-1-1,38.2,34.2,26.7,29.3,23.7,13.6,79,68,58,29.84,29.69,11,7,24,0.10
2013-1-2,33.5,25.9,19.0,17.8,13.3,7.2,73,62,54,30.01,29.84,13,7,27,0.05
2013-1-3,26.9,20.2,12.5,15.8,9.8,5.1,83,67,49,30.08,29.98,9,4,20,0.02
2013-1-4,39.4,30.7,14.5,29.2,22.4,10.4,90,75,58,29.83,0.88,11,5,27,0.10
2013-1-5,44.4,33.1,21.2,28.7,23.8,18.9,95,73,51,30.21,29.83,11,4,23,0.03
2013-1-6,42.5,32.6,21.5,36.4,29.6,19.4,98,92,80,30.17,29.90,10,2,20,0.02
2013-1-7,42.5,32.8,21.8,35.2,28.9,20.0,98,89,76,30.37,29.92,11,3,20,0.01
2013-1-8,46.4,39.6,22.0,36.9,34.4,20.3,99,85,69,30.35,30.25,14,6,29,0.01
2013-1-9,47.3,37.5,23.6,44.2,34.6,22.1,100,92,73,30.35,29.98,12,3,26,0.00
2013-1-10,48.3,42.9,38.2,36.4,30.2,26.9,78,64,51,30.44,30.01,13,7,30,0.00
2013-1-11,44.4,37.3,26.4,38.1,32.5,24.4,98,86,71,30.45,30.18,6,1,15,0.06
2013-1-12,47.7,41.9,35.0,43.7,39.7,33.4,99,95,84,30.20,30.08,4,1,12,0.03
2013-1-13,49.0,45.2,38.5,48.3,44.3,37.5,100,100,99,30.13,30.00,7,3,17,0.02
2013-1-14,56.7,49.0,42.8,56.1,47.1,37.4,100,96,75,30.19,29.92,10,4,24,0.03
2013-1-15,43.4,40.3,37.8,40.6,37.7,35.9,99,93,85,30.24,30.16,8,2,16,0.11
2013-1-16,43.2,39.9,37.0,42.4,38.8,35.7,100,99,92,30.17,29.67,7,2,18,0.47
2013-1-17,43.9,37.8,33.7,35.7,32.7,26.0,99,85,66,30.02,29.81,10,4,22,0.01
2013-1-18,34.1,23.9,12.0,26.6,13.5,3.1,97,69,42,30.44,29.98,15,6,31,0.09
2013-1-19,46.2,39.0,11.5,41.7,32.9,7.0,93,82,71,30.40,29.93,15,9,33,0.21
2013-1-20,51.7,44.9,31.6,42.9,36.7,14.9,98,77,52,29.93,29.56,15,8,34,0.01
2013-1-21,33.2,28.6,25.4,27.7,16.1,8.1,97,64,43,30.06,29.72,10,4,22,0.00
2013-1-22,29.2,24.6,16.9,27.7,13.8,1.3,97,69,39,30.01,29.66,13,6,28,0.12
2013-1-23,19.3,14.5,11.2,4.8,-0.8,-4.3,73,53,43,30.09,30.00,14,8,31,0.00
2013-1-24,22.1,14.6,7.6,6.9,0.1,-4.3,72,56,40,30.12,29.97,16,9,33,0.00
2013-1-25,27.4,18.7,12.1,12.9,3.1,-1.7,70,53,37,30.25,29.98,12,5,28,0.00
2013-1-26,27.4,23.4,19.7,20.8,14.7,2.3,92,73,46,30.12,29.90,15,7,32,0.02
2013-1-27,32.1,23.9,17.3,15.1,9.8,6.8,73,59,44,30.40,30.12,15,8,28,0.01
2013-1-28,32.9,26.8,17.7,31.5,16.1,1.9,98,69,32,30.40,29.95,4,1,9,0.00
2013-1-29,38.7,35.9,32.8,37.3,34.8,31.5,99,99,97,30.16,29.93,3,1,11,0.19
2013-1-30,52.2,46.1,38.0,51.7,45.1,36.6,100,99,96,30.12,29.55,14,7,32,0.07
2013-1-31,53.9,46.5,33.8,53.1,39.6,16.2,100,81,50,29.57,29.07,17,11,40,0.41
2013-2-1,34.2,30.6,25.1,18.1,12.8,7.2,63,50,43,30.03,29.56,12,7,25,0.00
2013-2-2,32.5,26.9,20.6,27.1,13.7,5.7,92,61,39,30.21,30.00,12,5,26,0.00
2013-2-3,33.2,29.1,22.4,30.8,26.2,19.8,98,92,83,30.01,29.60,12,4,26,0.05
2013-2-4,32.9,27.4,23.9,26.2,15.6,9.2,95,66,43,29.90,29.63,13,7,27,0.11
2013-2-5,30.6,26.8,24.0,29.1,20.3,12.1,97,80,61,29.98,29.86,8,2,17,0.00
2013-2-6,40.2,33.4,29.7,33.1,27.0,14.9,99,82,55,30.22,29.84,9,3,20,0.09
2013-2-7,29.8,26.5,20.4,23.8,15.8,11.8,88,67,53,30.47,30.22,11,4,21,0.00
2013-2-8,35.7,32.8,29.5,33.1,29.4,23.5,99,90,81,30.43,29.24,15,6,41,0.40
2013-2-9,32.4,24.4,21.3,32.2,23.1,19.6,99,97,95,30.04,29.18,26,16,55,0.02
2013-2-10,34.2,25.2,16.4,27.8,21.7,13.9,96,90,74,30.33,30.04,14,6,33,0.24
2013-2-11,44.9,31.2,14.8,44.1,29.7,12.6,100,97,93,30.32,29.69,10,4,27,1.01
2013-2-12,47.2,41.1,34.7,33.6,30.2,27.3,91,69,54,29.83,29.62,13,8,27,0.01
2013-2-13,42.7,34.4,28.1,29.6,26.3,23.8,93,76,54,29.83,29.61,7,3,14,0.00
2013-2-14,44.2,35.0,26.8,36.2,29.7,23.8,98,85,54,29.98,29.63,8,2,18,0.20
2013-2-15,46.7,37.8,27.2,39.2,34.1,25.4,98,90,78,30.01,29.90,9,3,20,0.00
2013-2-16,40.2,34.5,26.7,35.6,32.5,25.4,100,95,86,29.90,29.57,10,4,21,0.01
2013-2-17,35.4,26.3,21.6,33.0,21.1,6.7,98,85,52,29.57,29.19,20,14,40,0.01
2013-2-18,34.4,25.4,18.4,11.1,7.0,3.6,64,49,34,30.11,29.57,20,11,35,0.01
2013-2-19,46.4,37.1,25.3,45.3,28.1,5.7,99,74,43,30.12,29.56,12,5,26,0.69
2013-2-20,42.6,35.0,27.1,41.5,24.8,12.2,99,71,49,29.73,29.50,14,7,26,0.02
2013-2-21,35.3,30.1,26.1,27.6,18.3,15.0,81,65,49,30.03,29.73,15,9,33,0.00
2013-2-22,38.4,35.2,32.2,30.2,28.1,26.4,88,78,67,30.30,30.03,13,4,29,0.00
2013-2-23,40.6,36.3,29.9,38.5,32.1,27.6,99,88,75,30.30,29.81,6,2,17,0.31
2013-2-24,44.1,39.5,33.1,43.0,38.4,32.1,99,99,98,29.81,29.49,11,5,24,1.15
2013-2-25,43.7,35.1,25.7,33.0,29.4,23.7,99,84,54,30.20,29.78,10,5,20,0.13
2013-2-26,46.9,34.3,21.5,35.7,27.8,19.8,100,82,51,30.29,30.10,5,1,14,0.01
2013-2-27,45.3,43.0,40.2,44.2,41.5,35.1,100,97,85,30.09,29.50,11,7,33,0.74
2013-2-28,44.8,40.0,36.0,40.7,38.0,34.7,100,96,86,29.60,29.45,7,2,17,0.00
2013-3-1,43.7,38.3,35.3,36.9,34.2,32.6,99,88,74,29.61,29.44,14,6,27,0.01
2013-3-2,46.6,38.8,35.7,34.0,31.5,30.0,92,78,59,29.61,29.56,8,4,18,0.00
2013-3-3,43.4,37.4,35.1,34.4,31.8,30.0,94,83,70,29.57,29.51,8,4,16,0.00
2013-3-4,43.6,36.1,32.1,32.1,28.4,25.3,95,78,54,29.63,29.50,13,8,29,0.00
2013-3-5,43.2,36.9,32.1,39.7,32.9,27.6,98,89,78,29.99,29.63,12,6,23,0.07
2013-3-6,42.2,38.5,33.7,37.1,35.2,32.4,99,91,81,30.01,29.85,10,5,32,0.06
2013-3-7,38.6,36.4,35.0,36.0,34.9,33.4,98,97,91,29.85,29.78,12,9,33,2.14
2013-3-8,41.3,36.3,33.8,35.8,33.7,32.4,99,94,74,29.99,29.76,12,8,32,1.27
2013-3-9,40.4,37.5,35.1,34.3,32.5,31.4,91,85,79,30.26,29.99,10,6,28,0.00
2013-3-10,47.7,39.4,35.3,36.0,33.2,31.5,91,82,66,30.34,30.25,5,2,13,0.00
2013-3-11,47.6,40.4,36.1,41.1,36.7,32.3,94,88,77,30.30,30.15,23,5,23,0.18
2013-3-12,49.6,46.8,41.8,48.8,45.0,40.2,97,93,89,30.16,29.72,24,10,24,0.21
2013-3-13,55.5,46.4,39.1,50.1,39.4,25.4,97,78,51,29.73,29.64,12,4,22,0.47
2013-3-14,38.9,33.9,26.2,27.7,21.4,10.0,76,60,42,29.75,29.64,15,6,26,0.00
2013-3-15,38.9,31.6,23.3,28.7,17.1,9.5,72,55,31,29.81,29.63,15,9,35,0.09
2013-3-16,40.6,36.1,31.7,28.5,22.2,18.6,73,57,46,29.78,29.63,16,5,28,0.00
2013-3-17,40.2,33.9,22.9,28.1,18.9,13.5,94,56,39,30.24,29.86,14,6,21,0.00
2013-3-18,39.4,31.0,24.4,27.7,17.9,10.3,88,59,41,30.39,30.20,9,3,17,0.00
2013-3-19,44.6,37.0,30.8,43.7,35.6,27.7,97,94,87,30.20,29.43,18,6,30,0.81
2013-3-20,42.5,34.4,27.5,32.2,24.8,20.7,92,69,43,29.79,29.57,16,7,28,0.09
2013-3-21,44.3,33.8,24.2,32.7,28.6,22.5,96,82,53,29.78,29.52,9,3,20,0.00
2013-3-22,40.8,33.7,29.4,32.9,28.9,25.0,95,83,60,29.69,29.51,8,2,14,0.59
2013-3-23,45.5,36.6,29.7,25.6,23.1,21.4,75,59,39,29.72,29.58,15,8,27,0.01
2013-3-24,48.1,37.8,28.1,29.7,25.9,21.8,87,63,44,29.78,29.69,14,4,22,0.00
2013-3-25,46.5,36.4,27.0,35.8,29.4,24.2,94,77,55,29.71,29.38,9,4,23,0.01
2013-3-26,50.5,40.7,35.1,34.3,30.3,24.4,91,68,38,29.71,29.38,14,6,25,0.04
2013-3-27,55.5,43.4,30.3,37.6,29.5,25.9,89,61,34,29.78,29.69,10,4,22,0.00
2013-3-28,50.4,42.1,38.1,40.1,36.0,31.7,94,80,55,29.96,29.77,12,5,20,0.07
2013-3-29,57.2,45.8,36.7,39.0,35.6,32.6,86,68,48,29.99,29.94,12,4,20,0.00
2013-3-30,57.1,45.3,34.5,38.0,35.1,28.6,89,69,35,30.05,29.97,9,4,17,0.00
2013-3-31,52.4,41.0,26.1,42.2,34.8,24.3,96,80,53,30.08,29.75,9,3,29,0.05
2013-4-1,52.8,46.8,38.6,46.9,42.2,19.1,96,84,45,29.74,29.52,16,8,28,0.23
2013-4-2,43.1,36.7,31.3,24.7,16.9,11.8,56,45,29,29.92,29.72,15,8,27,0.00
2013-4-3,48.5,38.2,31.5,18.2,16.0,13.6,54,41,26,30.08,29.89,14,9,29,0.00
2013-4-4,46.0,39.2,33.3,35.1,24.4,15.9,81,56,33,30.25,30.06,14,8,25,0.00
2013-4-5,54.0,43.7,40.6,46.5,38.9,33.1,94,83,63,30.06,29.59,13,4,24,0.06
2013-4-6,46.4,38.8,28.5,33.2,20.9,12.6,77,51,26,30.30,29.79,18,7,32,0.01
2013-4-7,49.6,39.0,24.1,43.3,31.5,21.2,95,76,54,30.30,30.02,15,6,28,0.00
2013-4-8,64.2,52.2,42.8,46.9,42.6,37.0,92,72,45,30.09,29.93,14,4,27,0.00
2013-4-9,71.8,52.7,43.1,54.3,45.9,39.7,96,79,49,30.08,29.81,13,4,22,0.01
2013-4-10,62.2,50.5,44.0,49.2,44.7,41.5,95,82,58,29.97,29.83,10,2,15,0.30
2013-4-11,54.4,46.7,43.7,45.6,41.1,35.5,96,82,54,30.09,29.76,8,2,16,0.06
2013-4-12,44.3,42.3,37.7,43.0,36.8,29.8,96,82,60,30.11,29.61,10,4,25,0.70
2013-4-13,66.7,42.9,37.7,42.5,39.1,35.3,96,87,47,29.90,29.61,15,6,29,0.15
2013-4-14,54.4,46.9,38.4,43.7,37.9,32.3,96,73,48,30.14,29.89,9,4,20,0.00
2013-4-15,53.8,45.1,37.4,41.1,37.4,31.9,93,75,56,30.39,30.15,7,2,19,0.00
2013-4-16,56.7,47.4,35.7,48.1,42.9,34.1,96,85,68,30.39,30.10,15,5,29,0.00
2013-4-17,65.8,53.4,36.8,52.0,43.2,34.0,96,72,33,30.28,30.05,15,4,29,0.01
2013-4-18,56.5,46.1,32.6,46.4,37.5,31.0,96,74,45,30.38,30.15,10,3,21,0.00
2013-4-19,60.9,56.5,49.5,59.0,54.6,46.4,97,93,88,30.15,29.74,16,8,32,0.00
2013-4-20,60.1,51.8,40.3,59.1,48.7,38.2,97,89,71,30.13,29.66,20,6,35,0.34
2013-4-21,51.2,43.0,31.3,38.4,28.9,25.4,86,58,41,30.62,30.14,13,5,23,0.00
2013-4-22,52.8,41.2,29.6,39.7,33.1,27.3,95,74,49,30.68,30.51,9,3,23,0.00
2013-4-23,45.7,43.8,41.3,44.4,41.9,36.0,96,93,80,30.51,29.92,9,4,21,0.96
2013-4-24,56.2,48.0,43.4,50.2,45.4,42.6,97,91,76,29.93,29.74,18,10,36,0.29
2013-4-25,61.1,51.5,38.8,51.9,45.6,36.7,95,82,48,30.20,29.87,13,4,24,0.06
2013-4-26,63.3,48.2,35.7,43.5,39.0,34.4,97,74,40,30.38,30.20,5,1,14,0.00
2013-4-27,59.6,46.5,32.2,46.0,35.9,30.9,97,71,41,30.37,30.29,7,2,12,0.00
2013-4-28,61.2,48.7,32.9,46.5,41.2,31.1,97,77,47,30.31,30.24,8,2,13,0.00
2013-4-29,63.8,50.1,38.9,48.8,40.0,29.3,97,72,30,30.25,30.21,7,2,14,0.00
2013-4-30,65.4,50.3,35.5,43.9,34.0,25.9,96,60,24,30.32,30.21,6,1,12,0.00
2013-5-1,64.4,50.8,35.3,49.2,42.8,33.5,97,76,54,30.43,30.31,7,1,15,0.00
2013-5-2,70.2,51.7,37.2,50.2,42.4,35.3,97,74,36,30.42,30.33,6,2,15,0.00
2013-5-3,53.8,45.2,36.0,45.3,40.7,34.3,96,84,70,30.42,30.31,9,3,20,0.00
2013-5-4,56.8,47.3,38.8,43.4,40.0,37.1,96,78,51,30.31,30.25,9,2,20,0.00
2013-5-5,60.7,49.0,39.0,45.5,41.8,36.9,96,78,52,30.25,30.22,7,2,16,0.00
2013-5-6,62.6,50.1,42.8,51.6,45.8,41.5,96,86,66,30.25,30.14,7,2,13,0.00
2013-5-7,69.5,57.4,46.8,60.3,53.6,45.7,97,88,71,30.16,30.10,7,1,12,0.00
2013-5-8,72.7,60.6,52.6,63.5,57.3,50.6,97,89,70,30.18,30.02,8,3,17,0.10
2013-5-9,65.6,58.2,53.0,62.2,56.4,52.2,98,94,83,30.02,29.86,7,2,14,0.12
2013-5-10,72.9,61.3,52.9,61.8,56.3,52.1,98,85,57,29.94,29.85,10,3,17,0.00
2013-5-11,62.9,58.6,55.0,59.6,56.9,53.6,98,94,84,29.92,29.71,14,6,25,0.35
2013-5-12,64.0,58.4,52.6,60.4,55.0,40.7,98,89,59,29.76,29.57,14,5,23,0.18
2013-5-13,57.4,51.1,37.9,41.5,37.6,31.5,92,61,40,29.95,29.76,14,6,27,0.00
2013-5-14,58.6,51.5,47.9,42.5,38.0,31.3,77,61,38,29.99,29.92,12,5,21,0.01
2013-5-15,60.8,52.2,39.0,55.4,44.9,35.0,93,77,55,30.02,29.66,13,5,30,0.08
2013-5-16,72.2,63.2,52.8,55.2,51.0,45.9,96,67,43,29.73,29.61,15,6,27,0.00
2013-5-17,67.7,59.8,49.5,49.3,45.9,43.3,90,62,43,30.06,29.73,15,5,24,0.00
2013-5-18,66.7,55.1,40.2,54.1,48.4,38.3,96,80,58,30.27,30.17,10,3,18,0.00
2013-5-19,67.6,58.6,46.7,54.7,50.6,44.8,96,76,51,30.32,30.22,10,4,19,0.07
2013-5-20,73.6,62.7,56.0,65.8,59.7,54.7,97,90,75,30.22,29.90,12,4,20,0.24
2013-5-21,70.4,62.2,57.1,63.6,59.4,55.4,97,91,77,29.93,29.84,9,2,14,0.00
2013-5-22,71.4,59.4,52.7,63.8,56.6,51.6,97,91,74,29.92,29.87,9,3,19,0.02
2013-5-23,67.5,63.6,60.4,63.7,61.9,59.6,98,94,87,29.93,29.85,16,9,28,0.51
2013-5-24,64.9,61.8,54.7,64.3,61.1,53.9,98,97,97,29.85,29.66,22,6,37,1.72
2013-5-25,57.4,52.0,44.4,54.3,50.2,42.8,98,94,82,29.69,29.62,12,6,21,0.15
2013-5-26,58.4,49.2,41.6,45.9,42.1,38.6,95,78,57,30.04,29.67,14,5,25,0.01
2013-5-27,72.2,57.6,45.8,48.7,43.2,37.2,86,62,29,30.13,30.04,14,4,22,0.00
2013-5-28,67.9,56.6,40.6,56.4,49.5,39.0,97,79,49,30.21,30.13,8,2,13,0.00
2013-5-29,66.7,59.2,56.6,62.8,57.7,55.8,97,95,87,30.19,29.99,10,5,24,0.68
2013-5-30,80.2,69.0,60.7,69.9,63.7,59.6,97,84,69,30.05,29.99,10,4,17,0.06
2013-5-31,90.1,73.1,59.0,71.0,63.8,57.3,97,75,43,30.05,29.94,9,3,18,0.00
2013-6-1,76.5,68.2,63.1,67.0,63.1,60.1,94,84,71,29.96,29.90,10,5,20,0.00
2013-6-2,70.1,65.8,63.3,64.7,62.8,60.7,94,90,82,29.91,29.81,15,8,29,0.00
2013-6-3,65.1,63.8,62.0,64.1,62.8,61.1,98,97,93,29.84,29.76,14,6,29,1.36
2013-6-4,72.1,62.1,49.3,63.1,50.2,44.2,98,68,42,30.03,29.75,12,5,22,0.01
2013-6-5,70.3,58.3,44.3,55.8,49.0,43.0,97,73,45,30.15,30.03,7,2,14,0.00
2013-6-6,69.5,61.0,50.5,56.3,52.5,48.1,95,74,54,30.16,30.05,7,2,17,0.00
2013-6-7,66.1,58.1,56.1,65.5,55.9,51.3,98,93,80,30.06,29.73,10,2,22,1.03
2013-6-8,70.0,65.0,58.1,66.0,62.3,56.7,98,91,75,29.95,29.52,14,7,32,0.17
2013-6-9,77.7,68.1,58.6,62.5,59.0,56.4,96,75,49,30.11,29.95,10,4,20,0.00
2013-6-10,74.0,63.1,54.6,61.4,57.8,52.9,96,84,59,30.15,29.98,6,1,13,0.36
2013-6-11,68.7,63.1,55.6,66.5,61.9,54.3,98,96,89,29.97,29.50,13,5,23,0.95
2013-6-12,69.9,61.8,54.8,59.4,56.5,53.7,98,83,62,29.73,29.52,15,6,28,0.00
2013-6-13,67.3,59.1,53.4,57.9,54.6,51.4,96,85,66,29.77,29.58,7,1,16,0.22
2013-6-14,62.2,55.8,50.8,55.3,52.5,49.1,97,89,73,29.70,29.49,12,4,24,0.66
2013-6-15,76.9,63.8,50.4,57.3,53.7,43.1,97,73,32,29.91,29.70,10,3,17,0.00
2013-6-16,74.3,65.6,57.2,62.4,59.4,53.8,96,82,51,29.91,29.73,14,4,22,0.00
2013-6-17,75.9,67.3,58.6,66.9,62.6,56.9,96,85,71,29.88,29.75,12,3,20,0.00
2013-6-18,78.7,67.0,59.9,66.9,62.0,58.3,97,85,62,29.89,29.82,6,1,20,0.01
2013-6-19,72.8,64.0,51.2,60.6,55.5,48.4,95,76,47,30.10,29.79,10,3,18,0.03
2013-6-20,72.7,62.1,47.8,60.0,53.5,46.2,97,75,50,30.24,30.11,10,4,20,0.00
2013-6-21,71.8,66.7,61.6,60.1,56.1,52.9,80,69,58,30.25,30.19,14,6,21,0.00
2013-6-22,77.3,68.4,64.0,63.8,60.1,55.5,93,76,50,30.21,30.13,10,5,21,0.00
2013-6-23,75.0,69.7,65.3,68.9,65.7,63.3,95,88,75,30.15,30.02,14,6,26,0.00
2013-6-24,85.2,75.6,68.1,74.7,70.0,65.0,97,84,69,30.03,29.84,12,5,22,0.01
2013-6-25,86.8,74.9,66.9,71.3,68.0,64.1,93,80,54,29.87,29.73,13,4,22,0.00
2013-6-26,84.9,76.7,69.3,73.7,70.3,67.5,95,81,63,29.80,29.68,12,2,20,0.02
2013-6-27,77.1,68.8,65.3,70.1,66.5,64.1,97,93,77,29.82,29.73,6,1,13,0.01
2013-6-28,70.7,69.0,67.5,69.9,68.1,66.6,98,97,95,29.72,29.54,14,7,31,0.38
2013-6-29,70.0,69.0,68.2,69.4,68.2,67.1,98,98,96,29.73,29.53,12,6,21,0.54
2013-6-30,74.1,69.5,67.5,71.3,68.3,66.6,98,96,88,29.94,29.73,9,4,21,0.02
2013-7-1,74.4,70.7,68.7,71.7,69.4,67.5,98,96,90,30.09,29.94,10,5,20,0.09
2013-7-2,76.8,72.1,70.1,73.1,70.4,68.6,98,95,87,30.18,30.08,13,6,20,0.09
2013-7-3,80.4,74.9,71.1,74.7,71.9,69.7,97,91,79,30.19,30.14,13,6,25,0.00
2013-7-4,83.7,76.2,71.6,76.1,72.9,70.2,98,90,77,30.18,30.10,15,6,26,0.00
2013-7-5,86.5,78.6,72.6,77.5,73.2,69.8,95,84,72,30.13,30.02,13,5,23,0.00
2013-7-6,87.8,80.4,73.2,78.0,74.2,71.0,93,82,69,30.05,29.92,10,3,20,0.00
2013-7-7,88.9,79.6,70.0,77.3,72.6,67.4,95,80,59,29.96,29.88,8,3,17,0.00
2013-7-8,85.6,77.7,72.6,75.3,72.1,70.1,96,83,65,29.99,29.88,13,4,23,0.00
2013-7-9,75.8,71.9,69.4,71.9,69.3,67.9,96,92,81,30.04,29.98,6,1,12,0.04
2013-7-10,80.0,73.8,69.1,74.7,71.8,68.0,98,94,82,30.03,29.81,10,4,21,0.00
2013-7-11,76.0,73.9,71.4,73.8,72.4,69.0,96,95,89,29.86,29.77,9,4,20,0.08
2013-7-12,74.8,70.5,66.2,71.0,68.0,64.4,98,92,81,30.13,29.85,6,1,14,0.00
2013-7-13,80.3,71.7,66.5,73.2,68.9,65.3,97,91,78,30.26,30.13,6,1,10,0.14
2013-7-14,83.2,75.8,69.9,76.8,73.2,69.0,98,92,78,30.25,30.16,8,2,12,0.04
2013-7-15,89.6,79.0,69.4,78.1,73.1,68.2,98,83,58,30.15,30.05,6,1,10,0.01
2013-7-16,90.6,79.4,68.8,73.7,70.3,65.4,95,75,53,30.10,30.02,9,2,15,0.00
2013-7-17,85.8,75.4,66.2,73.5,68.9,64.7,97,81,59,30.13,29.99,8,2,14,0.00
2013-7-18,92.0,81.1,73.6,76.0,72.9,70.4,93,77,54,29.99,29.91,9,3,15,0.00
2013-7-19,87.8,80.4,74.0,79.7,76.3,72.2,97,88,74,29.92,29.73,15,6,25,0.00
2013-7-20,84.7,80.0,75.5,77.6,75.5,70.3,93,87,75,29.74,29.63,14,7,26,0.00
2013-7-21,82.8,74.2,65.7,73.2,69.2,63.9,94,85,73,29.95,29.74,5,1,10,0.01
2013-7-22,80.6,71.4,65.5,71.5,67.9,63.7,96,89,71,29.96,29.85,6,1,12,0.00
2013-7-23,81.8,75.4,69.2,77.0,72.9,68.0,97,92,83,29.85,29.52,14,4,26,0.00
2013-7-24,86.0,77.9,68.1,75.3,71.9,65.7,95,83,58,29.83,29.53,10,3,17,0.04
2013-7-25,69.4,66.3,64.0,67.0,62.1,59.1,96,87,80,29.99,29.84,7,3,17,0.17
2013-7-26,67.3,65.6,64.1,66.4,64.7,63.2,97,97,96,29.98,29.81,14,5,30,1.44
2013-7-27,78.9,71.7,65.4,72.6,68.1,64.0,97,89,75,30.03,29.97,8,4,17,0.01
2013-7-28,77.0,72.0,69.0,73.9,70.1,67.3,98,94,84,29.99,29.90,6,1,12,1.00
2013-7-29,77.8,72.6,66.6,73.5,70.1,65.7,98,92,83,30.00,29.94,7,2,13,0.00
2013-7-30,81.5,72.7,65.3,70.4,65.4,61.9,97,79,54,30.04,29.96,9,3,17,0.00
2013-7-31,80.6,69.9,59.7,67.1,63.2,58.1,97,81,56,30.07,30.02,7,1,16,0.00
2013-8-1,79.2,70.3,61.4,69.1,65.6,59.7,97,86,64,30.02,29.86,9,2,16,0.06
2013-8-2,83.3,71.3,65.8,72.8,67.5,64.6,97,88,64,29.85,29.76,10,3,18,0.31
2013-8-3,74.2,71.4,68.6,69.3,66.9,65.0,91,86,76,29.85,29.76,12,4,20,0.04
2013-8-4,79.5,69.8,60.5,66.9,62.0,57.5,94,77,54,29.81,29.73,9,2,17,0.02
2013-8-5,77.5,66.3,54.8,60.2,56.2,51.7,94,72,41,29.98,29.81,12,4,20,0.01
2013-8-6,76.6,64.1,49.2,60.4,54.7,47.6,97,74,48,30.12,29.98,6,1,12,0.00
2013-8-7,76.5,64.5,51.0,63.6,55.0,49.3,97,74,42,30.15,30.10,6,1,12,0.00
2013-8-8,78.4,70.8,57.9,71.2,66.2,55.0,93,86,72,30.10,30.02,12,4,24,0.00
2013-8-9,74.7,73.3,68.4,73.2,71.3,66.6,96,94,85,30.04,29.76,17,8,32,0.27
2013-8-10,83.5,75.0,67.2,71.9,66.9,58.3,97,77,47,29.94,29.75,13,4,22,0.00
2013-8-11,80.2,69.2,57.3,62.6,57.3,52.8,94,68,39,30.02,29.94,7,2,15,0.00
2013-8-12,76.8,70.9,63.7,69.8,65.8,60.3,93,84,68,30.00,29.89,10,3,20,0.00
2013-8-13,71.6,68.1,63.1,69.5,66.6,61.4,97,95,91,29.90,29.63,5,1,12,0.15
2013-8-14,77.0,68.1,62.5,65.8,59.5,54.1,98,76,48,29.88,29.62,13,3,21,0.01
2013-8-15,76.2,66.9,57.8,58.7,54.7,48.6,88,66,38,30.08,29.88,13,4,18,0.00
2013-8-16,76.6,68.5,56.5,64.1,59.4,53.5,95,74,46,30.16,30.06,10,3,20,0.00
2013-8-17,81.8,68.3,54.9,66.4,60.7,53.2,97,79,49,30.23,30.15,6,1,12,0.00
2013-8-18,74.7,65.0,56.6,67.0,60.7,54.9,98,87,63,30.23,30.05,3,0,9,0.09
2013-8-19,81.2,68.4,55.9,68.0,62.6,54.8,97,83,54,30.04,29.91,9,2,14,0.01
2013-8-20,82.5,73.7,65.7,70.7,65.9,63.0,92,77,59,30.05,29.93,7,2,13,0.00
2013-8-21,83.8,72.5,59.5,70.7,65.9,57.8,97,81,59,30.10,30.01,8,2,16,0.00
2013-8-22,79.9,73.3,69.9,73.5,70.1,66.8,96,90,80,30.01,29.82,10,5,21,0.00
2013-8-23,78.8,71.0,60.0,70.5,63.8,57.1,96,79,51,30.03,29.77,10,4,23,0.00
2013-8-24,75.7,64.9,49.4,59.3,54.0,46.8,95,71,39,30.27,30.04,8,2,20,0.00
2013-8-25,80.8,65.1,46.4,62.3,54.9,44.5,97,73,38,30.31,30.17,8,2,14,0.00
2013-8-26,74.7,70.8,67.3,67.3,64.5,58.8,90,81,71,30.17,29.85,15,6,27,0.00
2013-8-27,73.6,69.9,65.9,70.8,68.1,64.7,97,94,88,29.85,29.79,7,1,14,0.35
2013-8-28,78.4,68.7,65.0,70.2,66.0,63.4,98,92,75,29.89,29.80,6,2,12,0.00
2013-8-29,69.9,65.5,59.1,65.9,62.9,56.7,97,91,84,29.99,29.88,5,1,14,0.01
2013-8-30,73.8,66.5,56.8,68.2,63.2,54.9,96,89,81,29.96,29.82,8,3,17,0.00
2013-8-31,75.1,71.8,69.4,71.2,69.6,67.9,95,93,87,29.83,29.79,12,6,23,0.00
2013-9-1,75.1,72.4,69.5,72.6,70.9,68.6,98,95,91,29.87,29.80,10,4,20,0.57
2013-9-2,79.2,73.3,69.4,74.5,71.3,68.2,97,94,83,29.85,29.70,9,3,17,0.00
2013-9-3,77.4,71.4,65.5,73.0,69.7,64.2,98,94,84,29.76,29.66,9,2,22,0.79
2013-9-4,77.7,68.3,60.3,66.0,62.8,59.2,98,84,56,29.88,29.75,9,3,20,0.01
2013-9-5,73.8,63.5,49.9,66.9,60.1,48.3,96,89,74,30.06,29.83,12,1,18,0.03
2013-9-6,69.7,56.6,47.2,54.8,49.6,45.6,98,80,49,30.17,30.06,7,1,12,0.01
2013-9-7,72.4,61.3,45.4,58.7,53.1,43.9,98,76,48,30.06,29.83,12,4,22,0.00
2013-9-8,78.0,68.1,59.4,65.9,58.4,46.9,87,72,56,30.00,29.69,13,5,22,0.00
2013-9-9,67.2,58.1,43.9,54.9,48.1,41.7,96,71,48,30.18,30.01,8,2,15,0.00
2013-9-10,72.2,67.5,62.3,66.6,61.3,54.5,90,81,74,30.15,30.02,13,6,24,0.00
2013-9-11,80.3,73.3,69.6,73.7,69.9,66.6,96,90,78,30.07,29.96,10,6,20,0.00
2013-9-12,76.0,72.0,69.5,71.2,69.5,68.2,96,92,84,29.97,29.68,15,7,25,0.00
2013-9-13,76.4,70.5,63.4,70.8,67.7,60.5,97,91,78,29.68,29.53,9,3,20,0.03
2013-9-14,70.3,62.7,54.6,61.4,57.8,52.3,95,84,70,29.99,29.67,10,2,17,0.00
2013-9-15,69.0,59.2,47.9,57.4,52.7,46.5,97,80,60,30.11,29.99,8,2,14,0.00
2013-9-16,65.8,60.7,53.8,60.3,56.5,51.8,94,86,71,30.13,29.96,10,2,20,0.09
2013-9-17,60.7,52.8,40.3,52.0,44.3,38.4,94,74,54,30.32,30.13,12,4,22,0.01
2013-9-18,71.1,54.5,38.4,55.1,45.4,36.8,98,75,35,30.27,30.10,7,2,16,0.00
2013-9-19,75.0,62.9,52.4,61.7,55.6,50.5,95,79,52,30.10,30.00,7,2,12,0.00
2013-9-20,77.1,61.4,47.3,64.8,55.2,45.9,98,82,51,30.04,29.97,7,0,12,0.00
2013-9-21,75.9,65.2,50.1,66.8,61.3,48.4,97,88,71,30.00,29.75,0,0,0,0.01
2013-9-22,70.8,66.4,58.2,66.8,62.9,50.3,97,89,75,29.75,29.61,0,0,0,0.15
2013-9-23,63.9,56.1,48.6,50.9,47.0,44.0,89,72,56,29.92,29.73,0,0,0,0.00
2013-9-24,64.0,53.8,46.6,49.7,46.2,43.3,89,76,56,29.92,29.77,2,0,7,0.00
2013-9-25,65.5,53.7,43.2,52.8,48.1,41.6,97,82,57,29.91,29.82,7,1,16,0.00
2013-9-26,63.6,55.1,45.7,52.5,49.4,43.5,95,82,65,30.04,29.91,9,2,17,0.00
2013-9-27,64.7,57.4,45.9,55.9,52.5,44.0,96,84,70,30.19,30.04,8,2,15,0.00
2013-9-28,72.8,55.9,43.4,60.0,49.4,41.2,98,81,47,30.24,30.18,6,1,10,0.00
2013-9-29,70.3,55.1,40.1,58.8,50.3,38.6,97,85,61,30.20,30.04,3,1,10,0.00
2013-9-30,69.0,59.0,52.8,59.3,54.8,51.2,98,87,61,30.04,29.90,8,2,15,0.01
2013-10-1,71.2,59.1,49.7,57.1,52.9,47.2,95,81,57,29.90,29.81,10,3,18,0.00
2013-10-2,78.4,65.5,50.6,65.3,58.7,48.7,96,80,60,29.89,29.77,12,2,20,0.00
2013-10-3,78.0,65.6,55.2,61.0,56.8,52.0,91,75,42,30.03,29.89,8,2,15,0.00
2013-10-4,72.4,58.0,46.8,60.6,54.6,45.4,97,89,61,30.02,29.97,8,0,13,0.23
2013-10-5,67.1,60.3,53.2,63.3,58.1,51.8,98,93,80,30.07,29.99,2,0,6,0.02
2013-10-6,62.7,58.6,53.0,59.6,56.5,51.6,98,93,81,30.15,30.06,8,1,18,0.03
2013-10-7,74.0,66.8,61.9,68.4,64.4,59.0,97,92,81,30.08,29.83,12,5,23,0.01
2013-10-8,66.5,57.8,45.7,65.0,51.6,44.1,97,81,60,30.29,29.84,12,4,22,0.16
2013-10-9,63.9,52.2,44.6,50.8,46.4,42.1,95,82,60,30.37,30.28,6,1,17,0.00
2013-10-10,67.0,56.9,44.6,59.2,53.9,43.0,97,90,74,30.28,30.08,5,1,12,0.00
2013-10-11,70.6,60.6,52.5,61.3,57.0,51.1,96,88,69,30.08,30.02,6,1,14,0.00
2013-10-12,63.1,57.4,52.1,58.5,54.0,48.7,96,88,83,30.30,30.06,8,2,18,0.00
2013-10-13,62.1,52.4,37.9,49.5,46.1,36.0,93,80,60,30.36,30.28,6,1,13,0.00
2013-10-14,62.6,46.7,33.6,51.5,42.4,32.3,98,86,64,30.34,30.22,6,1,12,0.00
2013-10-15,67.7,51.6,38.7,54.8,46.1,37.4,98,83,53,30.22,30.12,6,0,9,0.00
2013-10-16,62.4,55.9,41.3,59.8,54.5,39.7,97,95,90,30.11,29.85,7,1,14,0.00
2013-10-17,68.1,61.1,56.0,62.7,58.9,55.2,98,93,81,29.85,29.71,10,3,20,0.01
2013-10-18,71.9,63.0,46.9,62.7,55.6,43.6,97,79,47,29.86,29.60,12,4,22,0.01
2013-10-19,64.5,53.8,40.5,53.2,45.7,38.5,95,76,44,29.94,29.72,6,1,13,0.01
2013-10-20,64.5,56.1,38.7,57.8,46.5,35.7,95,73,39,29.96,29.66,15,4,22,0.01
2013-10-21,66.3,51.1,34.4,48.8,41.3,32.6,96,72,42,30.07,29.97,10,2,17,0.00
2013-10-22,67.2,57.8,47.6,57.2,52.2,44.9,97,82,66,29.98,29.66,8,2,14,0.00
2013-10-23,54.5,48.7,40.0,46.2,42.2,36.5,95,79,63,29.73,29.52,9,1,15,0.22
2013-10-24,53.8,45.8,41.0,42.4,35.5,29.8,95,69,41,29.84,29.57,12,4,21,0.00
2013-10-25,52.7,44.7,37.4,38.4,33.7,31.2,83,66,51,30.10,29.84,12,4,20,0.00
2013-10-26,56.7,46.4,28.8,45.2,36.4,26.5,94,70,53,30.12,29.85,16,6,30,0.00
2013-10-27,58.9,52.3,45.9,45.9,38.5,33.6,81,60,45,30.01,29.77,10,4,20,0.00
2013-10-28,58.6,47.5,34.0,43.8,36.9,30.4,90,68,48,30.27,30.01,13,3,25,0.00
2013-10-29,53.4,42.6,31.2,39.9,35.1,28.9,92,76,56,30.34,30.26,7,1,12,0.00
2013-10-30,52.3,42.4,29.5,48.2,40.1,27.7,96,92,83,30.32,30.15,3,0,6,0.03
2013-10-31,63.3,52.9,37.2,59.7,50.0,35.9,98,90,74,30.19,29.85,13,4,24,0.01
2013-11-1,67.3,63.0,60.2,64.0,60.4,56.8,96,91,82,29.84,29.50,18,10,36,0.06
2013-11-2,61.4,56.5,51.0,57.9,54.0,49.6,96,92,79,29.67,29.55,3,0,7,0.05
2013-11-3,53.8,46.8,42.0,50.7,41.4,30.8,96,82,62,30.28,29.65,10,4,22,0.14
2013-11-4,46.1,39.9,30.6,31.2,28.8,26.2,88,65,49,30.62,30.29,9,3,20,0.00
2013-11-5,50.9,39.5,31.5,37.8,33.5,29.2,93,80,58,30.64,30.48,6,0,10,0.00
2013-11-6,57.5,47.0,32.0,54.0,43.8,30.3,97,89,72,30.50,30.06,9,3,22,0.00
2013-11-7,61.8,56.3,46.4,60.9,54.5,39.5,97,94,76,30.05,29.62,13,6,29,0.90
2013-11-8,51.1,43.9,39.1,40.4,31.6,25.2,79,62,51,30.03,29.74,14,7,24,0.00
2013-11-9,46.4,40.2,34.7,28.5,26.9,24.9,73,59,45,30.13,30.03,15,6,25,0.00
2013-11-10,57.2,50.2,44.6,48.4,42.5,35.9,90,75,63,29.84,29.67,13,6,25,0.13
2013-11-11,53.2,46.8,40.1,45.7,35.5,30.6,76,65,46,30.03,29.81,15,7,28,0.00
2013-11-12,53.6,39.9,31.6,47.6,34.3,25.4,95,81,60,30.09,29.84,13,6,23,0.27
2013-11-13,38.2,33.2,29.4,27.4,22.7,16.2,77,66,51,30.20,30.09,14,6,22,0.13
2013-11-14,51.3,40.7,25.2,36.2,29.2,18.3,88,65,38,30.15,30.01,12,3,20,0.01
2013-11-15,57.4,50.5,44.0,48.6,42.0,31.9,93,74,52,30.17,30.10,10,4,20,0.00
2013-11-16,59.5,46.5,32.8,45.9,39.5,31.0,94,78,39,30.28,30.16,5,1,9,0.00
2013-11-17,59.8,48.0,32.6,54.4,45.4,31.1,97,91,56,30.28,29.86,7,2,17,0.14
2013-11-18,60.6,56.1,50.0,59.7,53.0,40.3,98,90,67,29.85,29.55,16,7,33,0.45
2013-11-19,50.8,42.6,35.7,41.1,29.4,24.4,71,59,50,30.19,29.61,17,8,30,0.00
2013-11-20,42.3,35.7,26.1,29.3,24.4,21.5,85,64,51,30.53,30.19,14,5,22,0.00
2013-11-21,49.4,34.0,23.0,35.2,27.9,20.9,95,80,49,30.57,30.36,6,1,12,0.00
2013-11-22,52.2,45.9,33.1,51.4,44.3,30.3,97,94,89,30.35,29.78,6,1,16,0.21
2013-11-23,59.9,48.2,44.3,48.0,40.2,32.3,97,76,51,29.81,29.71,17,6,28,0.01